Year,Month,Day,Hour,Minute,Value (Times are PST for temperature in C)
2012,03,30,07,57,2.40
2012,03,30,07,58,2.40
2012,03,30,07,59,2.40
2012,03,30,08,00,2.40
2012,03,30,08,01,2.40
2012,03,30,08,02,2.40
2012,03,30,08,03,2.40
2012,03,30,08,04,2.40
2012,03,30,08,05,2.40
2012,03,30,08,06,2.40
2012,03,30,08,07,2.40
2012,03,30,08,08,2.40
2012,03,30,08,09,2.30
2012,03,30,08,10,2.30
2012,03,30,08,11,2.30
2012,03,30,08,12,2.40
2012,03,30,08,13,2.40
2012,03,30,08,14,2.40
2012,03,30,08,15,2.40
2012,03,30,08,16,2.40
2012,03,30,08,17,2.40
2012,03,30,08,18,2.40
2012,03,30,08,19,2.40
2012,03,30,08,20,2.50
2012,03,30,08,21,2.50
2012,03,30,08,22,2.50
2012,03,30,08,23,2.50
2012,03,30,08,24,2.50
2012,03,30,08,25,2.60
2012,03,30,08,26,2.60
2012,03,30,08,27,2.60
2012,03,30,08,28,2.60
2012,03,30,08,29,2.60
2012,03,30,08,30,2.60
2012,03,30,08,31,2.60
2012,03,30,08,32,2.60
2012,03,30,08,33,2.70
2012,03,30,08,34,2.70
2012,03,30,08,35,2.70
2012,03,30,08,36,2.70
2012,03,30,08,37,2.70
2012,03,30,08,38,2.70
2012,03,30,08,39,2.80
2012,03,30,08,40,2.80
2012,03,30,08,41,2.80
2012,03,30,08,42,2.80
2012,03,30,08,43,2.80
2012,03,30,08,44,2.80
2012,03,30,08,45,2.80
2012,03,30,08,46,2.90
2012,03,30,08,47,2.90
2012,03,30,08,48,2.90
2012,03,30,08,49,3.00
2012,03,30,08,50,3.00
2012,03,30,08,51,3.10
2012,03,30,08,52,3.10
2012,03,30,08,53,3.10
2012,03,30,08,54,3.10
2012,03,30,08,55,3.10
2012,03,30,08,56,3.10
2012,03,30,08,57,3.10
2012,03,30,08,58,3.10
2012,03,30,08,59,3.10
2012,03,30,09,00,3.10
2012,03,30,09,01,3.00
2012,03,30,09,02,3.00
2012,03,30,09,03,2.90
2012,03,30,09,04,2.90
2012,03,30,09,05,2.90
2012,03,30,09,06,2.80
2012,03,30,09,07,2.80
2012,03,30,09,08,2.80
2012,03,30,09,09,2.80
2012,03,30,09,10,2.80
2012,03,30,09,11,2.80
2012,03,30,09,12,2.80
2012,03,30,09,13,2.90
2012,03,30,09,14,2.90
2012,03,30,09,15,2.90
2012,03,30,09,16,2.90
2012,03,30,09,17,2.90
2012,03,30,09,18,2.90
2012,03,30,09,19,2.90
2012,03,30,09,20,2.90
2012,03,30,09,21,2.90
2012,03,30,09,22,2.90
2012,03,30,09,23,2.90
2012,03,30,09,24,2.90
2012,03,30,09,25,2.90
2012,03,30,09,26,2.80
2012,03,30,09,27,2.80
2012,03,30,09,28,2.80
2012,03,30,09,29,2.80
2012,03,30,09,30,2.80
2012,03,30,09,31,2.80
2012,03,30,09,32,2.80
2012,03,30,09,33,2.80
2012,03,30,09,34,2.80
2012,03,30,09,35,2.80
2012,03,30,09,36,2.80
2012,03,30,09,37,2.80
2012,03,30,09,38,2.90
2012,03,30,09,39,2.90
2012,03,30,09,40,3.00
2012,03,30,09,41,3.00
2012,03,30,09,42,3.00
2012,03,30,09,43,3.00
2012,03,30,09,44,3.10
2012,03,30,09,45,3.10
2012,03,30,09,46,3.10
2012,03,30,09,47,3.10
2012,03,30,09,48,3.10
2012,03,30,11,29,7.20
2012,03,30,11,30,7.20
2012,03,30,11,31,7.20
2012,03,30,11,32,7.20
2012,03,30,11,33,7.20
2012,03,30,11,34,7.20
2012,03,30,11,35,7.20
2012,03,30,11,36,7.10
2012,03,30,11,37,7.10
2012,03,30,11,38,6.90
2012,03,30,11,39,6.70
2012,03,30,11,40,6.50
2012,03,30,11,41,6.30
2012,03,30,11,42,6.20
2012,03,30,11,43,6.00
2012,03,30,11,44,5.90
2012,03,30,11,45,5.90
2012,03,30,11,46,5.80
2012,03,30,11,47,5.70
2012,03,30,11,48,5.60
2012,03,30,11,49,5.60
2012,03,30,11,50,5.60
2012,03,30,11,51,5.50
2012,03,30,11,52,5.50
2012,03,30,11,53,5.50
2012,03,30,11,54,5.50
2012,03,30,11,55,5.50
2012,03,30,11,56,5.50
2012,03,30,11,57,5.50
2012,03,30,11,58,5.50
2012,03,30,11,59,5.50
2012,03,30,12,00,5.50
2012,03,30,12,01,5.50
2012,03,30,12,02,5.60
2012,03,30,12,03,5.60
2012,03,30,12,04,5.60
2012,03,30,12,05,5.60
2012,03,30,12,06,5.60
2012,03,30,12,07,5.60
2012,03,30,12,08,5.60
2012,03,30,12,09,5.70
2012,03,30,12,10,5.70
2012,03,30,12,11,5.70
2012,03,30,12,12,5.80
2012,03,30,12,13,5.80
2012,03,30,12,14,5.80
2012,03,30,12,15,5.90
2012,03,30,12,16,5.90
2012,03,30,12,17,5.90
2012,03,30,12,18,5.90
2012,03,30,12,19,6.00
2012,03,30,12,20,6.00
2012,03,30,12,21,6.00
2012,03,30,12,22,6.00
2012,03,30,12,23,6.00
2012,03,30,12,24,6.10
2012,03,30,12,25,6.10
2012,03,30,12,26,6.10
2012,03,30,12,27,6.10
2012,03,30,12,28,6.10
2012,03,30,12,29,6.20
2012,03,30,12,30,6.20
2012,03,30,12,31,6.20
2012,03,30,12,32,6.20
2012,03,30,12,33,6.30
2012,03,30,12,34,6.30
2012,03,30,12,35,6.30
2012,03,30,12,36,6.30
2012,03,30,12,37,6.40
2012,03,30,12,38,6.40
2012,03,30,12,39,6.40
2012,03,30,12,40,6.40
2012,03,30,12,41,6.50
2012,03,30,12,42,6.50
2012,03,30,12,43,6.50
2012,03,30,12,44,6.60
2012,03,30,12,45,6.60
2012,03,30,12,46,6.60
2012,03,30,12,47,6.60
2012,03,30,12,48,6.70
2012,03,30,12,49,6.70
2012,03,30,12,50,6.70
2012,03,30,12,51,6.70
2012,03,30,12,52,6.70
2012,03,30,12,53,6.70
2012,03,30,12,54,6.70
2012,03,30,12,55,6.80
2012,03,30,12,56,6.80
2012,03,30,12,57,6.80
2012,03,30,12,58,6.80
2012,03,30,12,59,6.80
2012,03,30,13,00,6.80
2012,03,30,13,01,6.80
2012,03,30,13,02,6.80
2012,03,30,13,03,6.80
2012,03,30,13,04,6.80
2012,03,30,13,05,6.80
2012,03,30,13,06,6.80
2012,03,30,13,07,6.70
2012,03,30,13,08,6.70
2012,03,30,13,09,6.80
2012,03,30,13,10,6.80
2012,03,30,13,11,6.80
2012,03,30,13,12,6.80
2012,03,30,13,13,6.80
2012,03,30,13,14,6.70
2012,03,30,13,15,6.70
2012,03,30,13,16,6.70
2012,03,30,13,17,6.60
2012,03,30,13,18,6.60
2012,03,30,13,19,6.50
2012,03,30,13,20,6.50
2012,03,30,13,21,6.50
2012,03,30,13,22,6.50
2012,03,30,13,23,6.50
2012,03,30,13,24,6.40
2012,03,30,13,25,6.40
2012,03,30,13,26,6.40
2012,03,30,13,27,6.30
2012,03,30,13,28,6.30
2012,03,30,13,29,6.30
2012,03,30,13,30,6.30
2012,03,30,13,31,6.30
2012,03,30,13,32,6.30
2012,03,30,13,33,6.30
2012,03,30,13,34,6.20
2012,03,30,13,35,6.20
2012,03,30,13,36,6.20
2012,03,30,13,37,6.20
2012,03,30,13,38,6.20
2012,03,30,13,39,6.20
2012,03,30,13,40,6.20
2012,03,30,13,41,6.20
2012,03,30,13,42,6.10
2012,03,30,13,43,6.10
2012,03,30,13,44,6.10
2012,03,30,13,45,6.20
2012,03,30,13,46,6.20
2012,03,30,13,47,6.20
2012,03,30,13,48,6.20
2012,03,30,13,49,6.20
2012,03,30,13,50,6.20
2012,03,30,13,51,6.10
2012,03,30,13,52,6.00
2012,03,30,13,53,5.90
2012,03,30,13,54,5.80
2012,03,30,13,55,5.70
2012,03,30,13,56,5.50
2012,03,30,13,57,5.50
2012,03,30,13,58,5.40
2012,03,30,13,59,5.30
2012,03,30,14,00,5.20
2012,03,30,14,01,5.20
2012,03,30,14,02,5.10
2012,03,30,14,03,5.10
2012,03,30,14,04,5.10
2012,03,30,14,05,5.20
2012,03,30,14,06,5.20
2012,03,30,14,07,5.30
2012,03,30,14,08,5.30
2012,03,30,14,09,5.20
2012,03,30,14,10,5.20
2012,03,30,14,11,5.10
2012,03,30,14,12,5.10
2012,03,30,14,13,5.00
2012,03,30,14,14,5.00
2012,03,30,14,15,4.90
2012,03,30,14,16,4.80
2012,03,30,14,17,4.80
2012,03,30,14,18,4.70
2012,03,30,14,19,4.70
2012,03,30,14,20,4.70
2012,03,30,14,21,4.70
2012,03,30,14,22,4.70
2012,03,30,14,23,4.70
2012,03,30,14,24,4.60
2012,03,30,14,25,4.60
2012,03,30,14,26,4.60
2012,03,30,14,27,4.60
2012,03,30,14,28,4.60
2012,03,30,14,29,4.60
2012,03,30,14,30,4.60
2012,03,30,14,31,4.60
2012,03,30,14,32,4.60
2012,03,30,14,33,4.60
2012,03,30,14,34,4.60
2012,03,30,14,35,4.60
2012,03,30,14,36,4.60
2012,03,30,14,37,4.60
2012,03,30,14,38,4.60
2012,03,30,14,39,4.70
2012,03,30,14,40,4.70
2012,03,30,14,41,4.70
2012,03,30,14,42,4.70
2012,03,30,14,43,4.70
2012,03,30,14,44,4.70
2012,03,30,14,45,4.70
2012,03,30,14,46,4.70
2012,03,30,14,47,4.70
2012,03,30,14,48,4.70
2012,03,30,14,49,4.70
2012,03,30,14,50,4.70
2012,03,30,14,51,4.70
2012,03,30,14,52,4.70
2012,03,30,14,53,4.70
2012,03,30,14,54,4.70
2012,03,30,14,55,4.70
2012,03,30,14,56,4.70
2012,03,30,14,57,4.70
2012,03,30,14,58,4.70
2012,03,30,14,59,4.70
2012,03,30,15,00,4.70
2012,03,30,15,01,4.70
2012,03,30,15,02,4.70
2012,03,30,15,03,4.70
2012,03,30,15,04,4.70
2012,03,30,15,05,4.70
2012,03,30,15,06,4.70
2012,03,30,15,07,4.70
2012,03,30,15,08,4.70
2012,03,30,15,09,4.70
2012,03,30,15,10,4.70
2012,03,30,15,11,4.80
2012,03,30,15,12,4.80
2012,03,30,15,13,4.80
2012,03,30,15,14,4.80
2012,03,30,15,15,4.80
2012,03,30,15,16,4.80
2012,03,30,15,17,4.80
2012,03,30,15,18,4.80
2012,03,30,15,19,4.80
2012,03,30,15,20,4.80
2012,03,30,15,21,4.80
2012,03,30,15,22,4.70
2012,03,30,15,23,4.70
2012,03,30,15,24,4.60
2012,03,30,15,25,4.50
2012,03,30,15,26,4.50
2012,03,30,15,27,4.40
2012,03,30,15,28,4.40
2012,03,30,15,29,4.40
2012,03,30,15,30,4.30
2012,03,30,15,31,4.30
2012,03,30,15,32,4.30
2012,03,30,15,33,4.30
2012,03,30,15,34,4.30
2012,03,30,15,35,4.30
2012,03,30,15,36,4.30
2012,03,30,15,37,4.30
2012,03,30,15,38,4.30
2012,03,30,15,39,4.30
2012,03,30,15,40,4.30
2012,03,30,15,41,4.30
2012,03,30,15,42,4.30
2012,03,30,15,43,4.30
2012,03,30,15,44,4.30
2012,03,30,15,45,4.30
2012,03,30,15,46,4.30
2012,03,30,15,47,4.30
2012,03,30,15,48,4.30
2012,03,30,15,49,4.30
2012,03,30,15,50,4.30
2012,03,30,15,51,4.30
2012,03,30,15,52,4.40
2012,03,30,15,53,4.40
2012,03,30,15,54,4.40
2012,03,30,15,55,4.40
2012,03,30,15,56,4.40
2012,03,30,15,57,4.40
2012,03,30,15,58,4.40
2012,03,30,15,59,4.40
2012,03,30,16,00,4.40
2012,03,30,16,01,4.50
2012,03,30,16,02,4.50
2012,03,30,16,03,4.50
2012,03,30,16,04,4.50
2012,03,30,16,05,4.60
2012,03,30,16,06,4.60
2012,03,30,16,07,4.60
2012,03,30,16,08,4.60
2012,03,30,16,09,4.60
2012,03,30,16,10,4.60
2012,03,30,16,11,4.70
2012,03,30,16,12,4.60
2012,03,30,16,13,4.70
2012,03,30,16,14,4.70
2012,03,30,16,15,4.70
2012,03,30,16,16,4.70
2012,03,30,16,17,4.70
2012,03,30,16,18,4.70
2012,03,30,16,19,4.70
2012,03,30,16,20,4.80
2012,03,30,16,21,4.80
2012,03,30,16,22,4.80
2012,03,30,16,23,4.80
2012,03,30,16,24,4.80
2012,03,30,16,25,4.80
2012,03,30,16,26,4.80
2012,03,30,16,27,4.80
2012,03,30,16,28,4.80
2012,03,30,16,29,4.80
2012,03,30,16,30,4.80
2012,03,30,16,31,4.80
2012,03,30,16,32,4.80
2012,03,30,16,33,4.80
2012,03,30,16,34,4.80
2012,03,30,16,35,4.80
2012,03,30,16,36,4.80
2012,03,30,16,37,4.80
2012,03,30,16,38,4.80
2012,03,30,16,39,4.80
2012,03,30,16,40,4.80
2012,03,30,16,41,4.90
2012,03,30,16,42,5.00
2012,03,30,16,43,5.00
2012,03,30,16,44,5.10
2012,03,30,16,45,5.20
2012,03,30,16,46,5.30
2012,03,30,16,47,5.40
2012,03,30,16,48,5.50
2012,03,30,16,49,5.60
2012,03,30,16,50,5.70
2012,03,30,16,51,5.80
2012,03,30,16,52,5.80
2012,03,30,16,53,5.90
2012,03,30,16,54,5.90
2012,03,30,16,55,5.90
2012,03,30,16,56,5.90
2012,03,30,16,57,5.80
2012,03,30,16,58,5.70
2012,03,30,16,59,5.70
2012,03,30,17,00,5.60
2012,03,30,17,01,5.50
2012,03,30,17,02,5.50
2012,03,30,17,03,5.50
2012,03,30,17,04,5.50
2012,03,30,17,05,5.50
2012,03,30,17,06,5.50
2012,03,30,17,07,5.50
2012,03,30,17,08,5.50
2012,03,30,17,09,5.40
2012,03,30,17,10,5.40
2012,03,30,17,11,5.40
2012,03,30,17,12,5.40
2012,03,30,17,13,5.40
2012,03,30,17,14,5.50
2012,03,30,17,15,5.50
2012,03,30,17,16,5.50
2012,03,30,17,17,5.50
2012,03,30,17,18,5.50
2012,03,30,17,19,5.50
2012,03,30,17,20,5.60
2012,03,30,17,21,5.60
2012,03,30,17,22,5.60
2012,03,30,17,23,5.70
2012,03,30,17,24,5.70
2012,03,30,17,25,5.70
2012,03,30,17,26,5.70
2012,03,30,17,27,5.70
2012,03,30,17,28,5.70
2012,03,30,17,29,5.70
2012,03,30,17,30,5.70
2012,03,30,17,31,5.70
2012,03,30,17,32,5.70
2012,03,30,17,33,5.70
2012,03,30,17,34,5.70
2012,03,30,17,35,5.70
2012,03,30,17,36,5.60
2012,03,30,17,37,5.60
2012,03,30,17,38,5.70
2012,03,30,17,39,5.70
2012,03,30,17,40,5.70
2012,03,30,17,41,5.70
2012,03,30,17,42,5.70
2012,03,30,17,43,5.70
2012,03,30,17,44,5.70
2012,03,30,17,45,5.80
2012,03,30,17,46,5.80
2012,03,30,17,47,5.90
2012,03,30,17,48,5.90
2012,03,30,17,49,6.00
2012,03,30,17,50,6.10
2012,03,30,17,51,6.10
2012,03,30,17,52,6.10
2012,03,30,17,53,6.10
2012,03,30,17,54,6.10
2012,03,30,17,55,6.10
2012,03,30,17,56,6.00
2012,03,30,17,57,6.00
2012,03,30,17,58,6.00
2012,03,30,17,59,6.00
2012,03,30,18,00,6.00
2012,03,30,18,01,6.10
2012,03,30,18,02,6.10
2012,03,30,18,03,6.10
2012,03,30,18,04,6.10
2012,03,30,18,05,6.10
2012,03,30,18,06,6.20
2012,03,30,18,07,6.30
2012,03,30,18,08,6.30
2012,03,30,18,09,6.30
2012,03,30,18,10,6.30
2012,03,30,18,11,6.30
2012,03,30,18,12,6.30
2012,03,30,18,13,6.20
2012,03,30,18,14,6.30
2012,03,30,18,15,6.20
2012,03,30,18,16,6.20
2012,03,30,18,17,6.20
2012,03,30,18,18,6.30
2012,03,30,18,19,6.30
2012,03,30,18,20,6.20
2012,03,30,18,21,6.20
2012,03,30,18,22,6.20
2012,03,30,18,23,6.20
2012,03,30,18,24,6.20
2012,03,30,18,25,6.10
2012,03,30,18,26,6.10
2012,03,30,18,27,6.10
2012,03,30,18,28,6.20
2012,03,30,18,29,6.20
2012,03,30,18,30,6.20
2012,03,30,18,31,6.20
2012,03,30,18,32,6.20
2012,03,30,18,33,6.20
2012,03,30,18,34,6.20
2012,03,30,18,35,6.20
2012,03,30,18,36,6.10
2012,03,30,18,37,6.10
2012,03,30,18,38,6.20
2012,03,30,18,39,6.20
2012,03,30,18,40,6.20
2012,03,30,18,41,6.20
2012,03,30,18,42,6.20
2012,03,30,18,43,6.20
2012,03,30,18,44,6.20
2012,03,30,18,45,6.20
2012,03,30,18,46,6.20
2012,03,30,18,47,6.10
2012,03,30,18,48,6.10
2012,03,30,18,49,6.20
2012,03,30,18,50,6.20
2012,03,30,18,51,6.20
2012,03,30,18,52,6.20
2012,03,30,18,53,6.20
2012,03,30,18,54,6.10
2012,03,30,18,55,6.10
2012,03,30,18,56,6.10
2012,03,30,18,57,6.00
2012,03,30,18,58,5.90
2012,03,30,18,59,5.90
2012,03,30,19,00,5.90
2012,03,30,19,01,5.90
2012,03,30,19,02,5.80
2012,03,30,19,03,5.80
2012,03,30,19,04,5.80
2012,03,30,19,05,5.80
2012,03,30,19,06,5.80
2012,03,30,19,07,5.80
2012,03,30,19,08,5.80
2012,03,30,19,09,5.80
2012,03,30,19,10,5.80
2012,03,30,19,11,5.80
2012,03,30,19,12,5.80
2012,03,30,19,13,5.80
2012,03,30,19,14,5.80
2012,03,30,19,15,5.80
2012,03,30,19,16,5.80
2012,03,30,19,17,5.80
2012,03,30,19,18,5.80
2012,03,30,19,19,5.80
2012,03,30,19,20,5.80
2012,03,30,19,21,5.80
2012,03,30,19,22,5.80
2012,03,30,19,23,5.80
2012,03,30,19,24,5.80
2012,03,30,19,25,5.80
2012,03,30,19,26,5.80
2012,03,30,19,27,5.80
2012,03,30,19,28,5.80
